CZ-4B R/B

Last updated on Tue Oct 08 2024 00:02:10 GMT+0000 (Coordinated Universal Time)

1 29507U 06046C 24281.06011543 .00015367 00000+0 94478-3 0 9992 2 29507 97.6316 316.5280 0037360 254.3470 105.3636 15.09550519981581
UTC large
Height (km)
Speed (km/s)
/
Latitude / Longitude
Inclination (degrees)
Orbital Period (minutes)
Azimuth
Elevation
Range (km)
Doppler Factor

Next 0 passes for location: London (51.5072 / 0.1276)

Sorry there are no passes over London.